Location: Góry Miechowskie
(50.3599°N, 20.1803°E)
Time: 04:16:56
(UTC+00:00)

Vanguard 2 Rocket - Pass Details

Date: 20 September 2024
Orbit: 553 x 3298 km, 32.9° (Epoch: 14 October)

Event Time Altitude Azimuth Distance (km) Brightness Sun altitude
Exits shadow 22:56:28 14° 115° (ESE) 4,275 10.1 -38.8°
Drops below altitude 10° 22:58:35 10° 109° (ESE) 4,810 10.5 -38.7°
Sets 23:04:20 0° 98° (E) 6,320 11.2 -38.6°
